Starlink 34216

operational
NORAD ID: 64337 Int'l Des: 2025-124 Owner: SPXS Country: US Constellation: starlink
LEOCIRCULAR

关于 Starlink 34216

正在加载描述...

实时位置

正在加载3D地球...

即将过境

高度历史

Altitude vs Time

uPlot chart will show altitude changes over time

两行轨道根数

1 64337U 25124W 25352.34340071 .00017778 00000-0 65400-3 0 9994
2 64337 42.9980 220.7559 0001382 268.2075 91.8618 15.27579078 29343
Epoch: Dec 18, 2025 • Age: 32 hours

当前状态

高度 486.7 km
速度 7.63 km/s
星下点 42.00°N, 40.92°W
发射日期 Jun 10, 2025
运行时间 0.5 years
类型 internet

技术详情

分类 Payload
质量 575.00 kg
干质量 530.00 kg
总质量 575.00 kg
长度 0.30 m
直径 4.10 m
跨度 29.00 m
形状 Box + pan
制造商 SPXS
平台类型 Starlink V2MO
阶段状态 In Orbit
所有者/国家 SPXS/US

大型星座

Loading constellations...